Regional Weather Roundup
Issued by NWS

Home | Current Version | Previous Version | Text Only | Print | Product List | Glossary On
Versions: 1 2 3 4 5 6 7 8 9 10 11 12 13 14 15 16 17 18 19 20 21 22 23 24 25 26 27 28 29 30 31 32 33 34 35 36 37 38 39 40 41 42 43 44 45 46 47 48 49 50
000
ASUS46 KPQR 201910
RWROR

OREGON REGIONAL WEATHER ROUNDUP
NATIONAL WEATHER SERVICE PORTLAND OR
1200 PM PDT SUN AUG 20 2017

NOTE: "FAIR" INDICATES FEW OR NO CLOUDS BELOW 12,000 FEET WITH
NO SIGNIFICANT WEATHER AND/OR OBSTRUCTIONS TO VISIBILITY.

ORZ001>013-202000-
NORTHWEST OREGON


CITY           SKY/WX    TMP DP  RH WIND       PRES   REMARKS
ASTORIA        MOSUNNY   67  56  67 NW13      30.15F
NEWPORT        SUNNY     61  52  72 N15       30.17F
PORTLAND       PTSUNNY   67  52  58 N6        30.13F
VANCOUVER WA   MOSUNNY   69  54  58 N7        30.12F
SCAPPOOSE      MOSUNNY   73  52  47 N10       30.11F
HILLSBORO      MOSUNNY   70  52  52 S5        30.12F
AURORA         PTSUNNY   73  50  43 N12       30.13F
MCMINNVILLE    MOSUNNY   71  52  50 CALM      30.13F
SALEM          MOSUNNY   72  50  45 N8        30.11F
CORVALLIS      SUNNY     73  50  43 N3        30.13F
EUGENE         PTSUNNY   73  50  44 N15       30.11F
$$

ORZ021-028-202000-
SOUTHWEST OREGON


CITY           SKY/WX    TMP DP  RH WIND       PRES   REMARKS
NORTH BEND     SUNNY     64  50  60 N22       30.10F
BROOKINGS      CLOUDY    85  41  21 N9        29.90F HAZE
ROSEBURG       SUNNY     76  50  40 N10       30.07F
SEXTON SUMMIT  SUNNY     66  45  46 N6        30.13F HAZE
GRANTS PASS    FAIR      77  46  33 CALM      30.07F
MEDFORD        SUNNY     73  46  38 CALM      30.05F SMOKE
$$

ORZ014>016-041-202000-
COLUMBIA GORGE


CITY           SKY/WX    TMP DP  RH WIND       PRES   REMARKS
TROUTDALE      PTSUNNY   69  52  54 N3        30.12F
HOOD RIVER     PTSUNNY   72  52  49 S5        30.07F
THE DALLES     PTSUNNY   75  53  46 NW14      30.05S
$$

ORZ029>031-041-044-049-050-061>064-502-503-505>511-202000-
EASTERN OREGON


CITY           SKY/WX    TMP DP  RH WIND       PRES   REMARKS
MADRAS         SUNNY     72  37  28 SW5       30.13F
REDMOND        SUNNY     75  38  26 W3        30.12F
BEND           SUNNY     75  41  29 VRB5      30.14F
PRINEVILLE     SUNNY     73  43  33 VRB6      30.13F
KLAMATH FALLS  SUNNY     76  43  30 NW9       30.12F
LAKEVIEW       SUNNY    N/A N/A N/A NW13      30.14F
HERMISTON      PTSUNNY   79  44  28 W6        30.04F
PENDLETON      PTSUNNY   77  37  23 CALM      30.06F
JOHN DAY       MOSUNNY   75  40  28 CALM      30.13F
MEACHAM        PTSUNNY   71  37  28 NE6       30.14F
LA GRANDE      NOT AVBL
BAKER CITY     MOSUNNY   78  39  24 NW10      30.11F
BURNS          SUNNY     74  31  20 VRB6      30.14F
ROME             N/A     80  33  18 N8        30.10F
ONTARIO        SUNNY     82  41  23 N5        30.04F
$$



USA.gov is the U.S. government's official web portal to all federal, state and local government web resources and services.